Location: Hains Lake
(37.8540°N, 99.8578°W)
Time: 18:00:21
(UTC+00:00)

Courier 1B Rocket - Pass Details

Date: 23 April 2021
Orbit: 920 x 1202 km, 28.2° (Epoch: 05 May)

Event Time Altitude Azimuth Distance (km) Brightness Sun altitude
Rises 01:49:02 0° 242° (WSW) 3,615 8.6 -5.9°
Reaches altitude 10° 01:51:50 10° 233° (SW) 2,703 7.8 -6.4°
Maximum altitude 01:57:38 34° 170° (S) 1,603 5.9 -7.4°
Enters shadow 02:03:48 10° 109° (ESE) 2,880 6.8 -8.6°
